Location: ??? ???
(33.4974°N, 35.4618°E)
Time: 12:06:58
(UTC+00:00)

OAO 3 Rocket - Pass Details

Date: 29 October 2020
Orbit: 629 x 682 km, 35.0° (Epoch: 27 November)

Event Time Altitude Azimuth Distance (km) Brightness Sun altitude
Rises 15:12:13 0° 282° (WNW) 2,993 7.9 -5.6°
Reaches altitude 10° 15:14:38 10° 280° (W) 2,071 7.1 -6.1°
Maximum altitude 15:19:25 66° 198° (SSW) 708 3.5 -7.0°
Drops below altitude 10° 15:24:07 10° 117° (ESE) 2,031 5.2 -8.0°
Enters shadow 15:25:21 - 115° (ESE) 2,500 5.7 -8.2°
